Location: Freistadt
(48.5112°N, 14.5013°E)
Time: 04:55:22
(UTC+02:00)

EO-79 - Visible Passes

Search period start: 29 March 2023 00:00
Search period end: 08 April 2023 00:00
Orbit: 581 x 596 km, 98.0° (Epoch: 28 March)

Date Brightness Start Highest point End Pass type
(mag) Time Alt. Az. Time Alt. Az. Time Alt. Az.
29 Mar ? 02:39:09 10° NNE 02:40:33 18° NE 02:40:33 18° NE visible
29 Mar ? 04:14:42 10° N 04:17:04 24° NW 04:17:04 24° NW visible
30 Mar ? 02:46:36 10° NNE 02:48:19 21° NE 02:48:19 21° NE visible
30 Mar ? 04:22:25 10° N 04:24:50 22° NW 04:24:50 22° NW visible
31 Mar ? 02:54:05 10° NNE 02:56:04 25° NE 02:56:04 25° NE visible
31 Mar ? 04:30:08 10° NNW 04:32:35 20° NW 04:32:35 20° NW visible
01 Apr ? 03:01:33 10° NNE 03:03:48 29° NE 03:03:48 29° NE visible
01 Apr ? 04:37:53 10° NNW 04:40:19 18° NW 04:40:19 18° NW visible
02 Apr ? 03:09:02 10° NNE 03:11:31 34° NNE 03:11:31 34° NNE visible
02 Apr ? 04:45:40 10° NNW 04:48:02 16° WNW 04:48:02 16° WNW visible
03 Apr ? 03:16:31 10° NNE 03:19:13 39° NNE 03:19:13 39° NNE visible
03 Apr ? 04:53:30 10° NNW 04:55:35 14° WNW 04:55:44 14° WNW visible
04 Apr ? 03:24:00 10° NNE 03:26:54 44° NNE 03:26:54 44° NNE visible
04 Apr ? 05:01:28 10° NW 05:02:58 12° WNW 05:03:25 12° WNW visible
05 Apr ? 03:31:29 10° N 03:34:34 48° N 03:34:34 48° N visible
05 Apr ? 05:10:02 10° NW 05:10:20 10° NW 05:10:39 10° WNW visible
06 Apr ? 02:05:00 10° ENE 02:05:43 12° ENE 02:05:43 12° ENE visible
06 Apr ? 03:38:58 10° N 03:42:13 50° NNW 03:42:13 50° NNW visible
07 Apr ? 02:12:03 10° NE 02:13:21 14° ENE 02:13:21 14° ENE visible
07 Apr ? 03:46:27 10° N 03:49:51 48° NW 03:49:51 48° NW visible
